{"data":{"norad_id":63552,"epoch":"2026-09-19T18:10:33.406176Z","epoch_age_seconds":219650,"freshness":"STALE","line1":"1 63552U 25075E   26262.75733109  .00099745  00000+0  76937-3 0  9991","line2":"2 63552  43.0008  63.7371 0002369 248.4177 111.6439 15.70905471 83777","mean_motion":15.70905471,"eccentricity":0.0002369,"inclination_deg":43.0008,"raan_deg":63.7371,"arg_perigee_deg":248.4177,"mean_anomaly_deg":111.6439,"bstar":0.00076937,"rev_number":8377,"period_min":91.666877898346,"perigee_km":354.71254969043,"apogee_km":357.90332970286,"semimajor_km":6734.4449396966,"source":"CELESTRAK","updated_at":"2026-09-21T09:00:35.019867Z"}}